Location: *
(28.2408°N, 53.4600°E)
Time: 12:05:37
(UTC+00:00)

Cosmos 2074 Rocket - Pass Details

Date: 22 September 2019
Orbit: 966 x 987 km, 82.9° (Epoch: 20 October)

Event Time Altitude Azimuth Distance (km) Brightness Sun altitude
Rises 14:53:49 0° 356° (N) 3,667 7.1 -7.5°
Reaches altitude 10° 14:56:20 10° 357° (N) 2,715 6.4 -8.1°
Maximum altitude 15:02:34 80° 85° (E) 985 4.0 -9.5°
Drops below altitude 10° 15:08:44 10° 172° (S) 2,695 6.2 -10.8°
Sets 15:11:13 0° 173° (S) 3,639 6.9 -11.4°
